Regional Weather Roundup
Issued by NWS

Home | Current Version | Previous Version | Graphics & Text | Print | Product List | Glossary On
Versions: 1 2 3 4 5 6 7 8 9 10 11 12 13 14 15 16 17 18 19 20 21 22 23 24 25 26 27 28 29 30 31 32 33 34 35 36 37 38 39 40 41 42 43 44 45 46 47 48 49 50
000
ASUS44 KMEG 020310
RWRTN
TENNESSEE HOURLY STATE WEATHER ROUNDUP
NATIONAL WEATHER SERVICE MEMPHIS TN
1000 PM CDT MON SEP 01 2014

TNZ002-004-019-021-049-052-054-088>092-020400-
WEST TENNESSEE

CITY           SKY/WX    TMP DP  RH WIND       PRES   REMARKS
MEMPHIS INTL   CLEAR     82  72  71 S8        29.96F
NWS MEMPHIS      N/A     82 N/A N/A MISG        N/A
JACKSON        CLEAR     77  71  82 S3        29.98S
DYERSBURG      CLEAR     79  64  61 CALM      29.97R
UNION CITY     CLEAR     75  72  88 S7        29.95S
PARIS          CLEAR     75  70  83 S6        29.99S
HUNTINGDON     CLEAR     75  70  85 CALM      29.98F
LEXINGTON      CLEAR     77  70  78 S3        29.99S
SAVANNAH       CLEAR     75  75 100 SE5       30.01F
$$

TNZ008-025-027-028-033-062-065-066-020400-
NORTH MIDDLE TENNESSEE

CITY           SKY/WX    TMP DP  RH WIND       PRES   REMARKS
NASHVILLE      PTCLDY    78  69  73 S5        30.03S
DICKSON        CLEAR     75  70  83 S5        30.03R
PORTLAND       PTCLDY    73  70  88 S5        30.02F
CLARKSVILLE    CLEAR     78  70  76 S5        30.00S
LEBANON        CLEAR     76  67  73 CALM      30.03R
SMYRNA         CLEAR     75  70  85 CALM      30.04S
MURFREESBORO   CLEAR     78  68  71 CALM      30.04R
COOKEVILLE     PTCLDY    73  70  88 CALM      30.07S
LIVINGSTON     PTCLDY    75  68  79 S3        30.09R
GALLATIN       CLEAR     75  72  91 CALM      30.04S
CROSSVILLE     CLEAR     74  69  85 CALM      30.14R
$$

TNZ061-075-076-078-094-096-097-020400-
SOUTH MIDDLE TENNESSEE

CITY           SKY/WX    TMP DP  RH WIND       PRES   REMARKS
LEWISBURG      CLEAR     72  68  87 CALM      30.04S
FAYETTEVILLE   CLEAR     75  68  78 CALM      30.07S
TULLAHOMA      CLEAR     72  70  94 CALM      30.09S
WINCHESTER     CLEAR     73  72  94 CALM      30.08S
MCMINNVILLE    CLEAR     73  73 100 CALM      30.08S
COLUMBIA         N/A     75  73  94 CALM      30.02S
SHELBYVILLE    CLEAR     75  72  88 SE5       30.07R
$$

TNZ017-018-042-046-047-020400-
NORTHEAST TENNESSEE

CITY           SKY/WX    TMP DP  RH WIND       PRES   REMARKS
TRI CITIES     PTCLDY    72  68  87 CALM      30.12R
ELIZABETHTON   PTCLDY    66  64  94 CALM      30.14S
$$

TNZ012-013-036-069-073-074-020400-
CENTRAL EAST TENNESSEE

CITY           SKY/WX    TMP DP  RH WIND       PRES   REMARKS
KNOXVILLE      PTCLDY    77  70  79 S6        30.08R
OAK RIDGE      CLEAR     77  72  84 CALM      30.10R
GATLINBURG     CLEAR     73  70  88 CALM      30.09S
MORRISTOWN     PTCLDY    79  70  73 S3        30.12R
$$

TNZ083-085-099-020400-
SOUTHEAST TENNESSEE

CITY           SKY/WX    TMP DP  RH WIND       PRES   REMARKS
CHATTANOOGA    PTCLDY    81  69  67 S5        30.09R
$$

SKY/WX REPORTED AS FAIR MEANS FEW OR NO CLOUDS BELOW
12 THOUSAND FEET.



USA.gov is the U.S. government's official web portal to all federal, state and local government web resources and services.